Location: Utrecht
(52.0917°N, 5.1178°E)
Time: 01:21:14
(UTC+02:00)

Envisat - Visible Passes

Search period start: 24 August 2017 00:00
Search period end: 03 September 2017 00:00
Orbit: 764 x 766 km, 98.2° (Epoch: 23 August)

Date Brightness Start Highest point End Pass type
(mag) Time Alt. Az. Time Alt. Az. Time Alt. Az.
24 Aug 5.5 22:48:01 10° SW 22:51:29 18° W 22:54:58 10° NW visible
25 Aug 4.6 22:09:46 10° SSW 22:14:23 34° W 22:19:03 10° NNW visible
26 Aug 3.4 21:32:26 10° S 21:37:29 67° WSW 21:42:34 10° NNW visible
26 Aug 5.8 23:16:06 10° W 23:17:30 11° W 23:18:55 10° WNW visible
27 Aug 5.2 22:36:21 10° SW 22:40:15 22° W 22:44:11 10° NW visible
28 Aug 4.2 21:58:25 10° SSW 22:03:13 42° W 22:08:04 10° NNW visible
29 Aug 3.1 21:21:18 10° SSE 21:26:22 81° WSW 21:31:30 10° NNW visible
29 Aug 5.7 23:03:41 10° WSW 23:06:13 14° W 23:08:47 10° NW visible
30 Aug 5.0 22:24:47 10° SSW 22:29:02 27° W 22:33:19 10° NW visible
31 Aug 3.8 21:47:07 10° S 21:52:04 51° W 21:57:02 10° NNW visible
01 Sep 3.0 21:10:12 10° SSE 21:15:17 84° ENE 21:20:24 10° NNW visible
01 Sep 5.6 22:51:44 10° SW 22:54:59 17° W 22:58:14 10° NW visible
02 Sep 4.7 22:13:19 10° SSW 22:17:51 32° W 22:22:25 10° NNW visible
